Left ArrowRight Arrow

44.31136, -96.79839

Hourly Observations for January 11, 2018

Temp ( °F °C ) Dew Point ( °F °C ) Humidity (%) Winds ( mph kmh ) Pressure ( in mb ) Visibility ( mi km ) Precip ( " mm )
12:17 am 00:17 Windy with Snow Likely 12 -11 7 -14 79 79 NNW 23 37 29.88 1012 8 13 0.00 0.03
12:53 am 00:53 Windy with Snow Likely 10 -12 3 -16 72 72 NNW 28 44 29.88 1012 5 8 0.00 0.03
12:56 am 00:56 Windy with Snow Likely 10 -12.2 5 -15 80 80 NNW 25 41 29.86 1011 5 8 0.00 0.03
1:12 am 01:12 Windy with Snow Likely 10 -12 5 -15 79 79 NNW 24 39 29.91 1013 4 6 0.00 0.03
1:38 am 01:38 Cloudy with Light Snow 9 -13 5 -15 85 85 NNW 18 30 29.91 1013 3 5 0.00 0.03
1:48 am 01:48 Windy with Snow Likely 10 -12 7 -14 85 85 NNW 28 44 29.91 1013 2 3 0.00 0.03
1:56 am 01:56 Windy with Snow Likely 9 -12.8 5 -15 84 84 NNW 25 41 29.88 1012 2 2 0.00 0.03
2:18 am 02:18 Windy with Snow Likely 9 -13 5 -15 85 85 NNW 24 39 29.91 1013 2 3 0.00 0.03
2:25 am 02:25 Windy with Snow Likely 9 -13 5 -15 85 85 NNW 21 33 29.91 1013 2 3 0.00 0.03
2:27 am 02:27 Windy with Snow Likely 9 -13 5 -15 85 85 NW 22 35 29.94 1014 2 3 0.00 0.03
2:33 am 02:33 Windy with Snow Likely 9 -13 5 -15 85 85 NW 21 33 29.94 1014 2 3 0.00 0.03
2:43 am 02:43 Windy with Snow Likely 9 -13 3 -16 78 78 NNW 24 39 29.94 1014 5 8 0.00 0.03
2:56 am 02:56 Windy with Snow Likely 8 -13.3 3 -16.1 80 80 NW 25 41 29.91 1013 4 6 0.00 0.03
3:02 am 03:02 Windy with Snow Likely 9 -13 3 -16 78 78 NNW 22 35 29.94 1014 7 11 0.00 0.03
3:18 am 03:18 Windy with Snow Likely 9 -13 3 -16 78 78 NNW 21 33 29.97 1015 4 6 0.00 0.03
3:25 am 03:25 Windy with Snow Likely 9 -13 3 -16 78 78 NNW 22 35 29.97 1015 2 3 0.00 0.03
3:41 am 03:41 Windy with Snow Likely 7 -14 1 -17 78 78 NW 24 39 30.00 1016 2 3 0.00 0.03
3:51 am 03:51 Cloudy with Light Snow 7 -14 3 -16 85 85 NNW 16 26 30.03 1017 2 2 0.00 0.03
3:56 am 03:56 Windy with Snow Likely 7 -13.9 3 -16.1 84 84 NNW 24 39 29.96 1015 2 3 0.00 0.03
4:03 am 04:03 Windy with Snow Likely 7 -14 1 -17 78 78 NNW 22 35 30.03 1017 3 5 0.00 0.03
4:29 am 04:29 Windy with Snow Likely 5 -15 0 -18 78 78 NNW 29 46 30.03 1017 5 8 0.00 0.03
4:41 am 04:41 Windy with Snow Likely 3 -16 0 -18 85 85 NNW 23 37 30.06 1018 2 3 0.00 0.03
4:56 am 04:56 Windy with Snow Likely 4 -15.6 -3 -19.4 73 73 NW 29 46 29.98 1015 2 3 0.00 0.03
5:24 am 05:24 Windy with Snow Likely 3 -16 -2 -19 78 78 NNW 24 39 30.06 1018 2 3 0.00 0.03
5:34 am 05:34 Windy with Snow Likely 3 -16 -2 -19 78 78 NNW 23 37 30.06 1018 3 4 0.00 0.03
5:48 am 05:48 Windy with Snow Likely 3 -16 -2 -19 78 78 NNW 22 35 30.06 1018 4 6 0.00 0.03
5:56 am 05:56 Windy with Snow Likely 3 -16.1 -3 -19.4 76 76 NW 23 37 30.02 1017 8 13 0.00 0.03
6:12 am 06:12 Mostly Cloudy 1 -17 -6 -21 71 71 NNW 25 41 30.12 1020 10 16 0.00 0.03
6:56 am 06:56 Mostly Cloudy 1 -17.2 -6 -21.1 72 72 NNW 21 33 30.05 1018 10 16 0.00 0.03
7:03 am 07:03 Partly Cloudy 1 -17 -6 -21 71 71 NNW 24 39 30.12 1020 10 16 0.00 0.00
7:16 am 07:16 Mostly Cloudy 1 -17 -6 -21 71 71 NNW 22 35 30.15 1021 10 16 0.00 0.00
7:28 am 07:28 Cloudy 1 -17 -6 -21 71 71 NNW 25 41 30.15 1021 10 16 0.00 0.00
7:56 am 07:56 Cloudy 1 -17.2 -6 -21.1 72 72 NNW 25 41 30.07 1018 7 11 0.00 0.00
8:05 am 08:05 Cloudy 1 -17 -6 -21 71 71 NNW 28 44 30.15 1021 7 11 0.00 0.00
8:37 am 08:37 Cloudy 1 -17 -6 -21 71 71 NNW 25 41 30.18 1022 10 16 0.00 0.00
8:56 am 08:56 Cloudy 1 -17.2 -7 -21.7 68 68 NNW 28 44 30.11 1020 10 16 0.00 0.00
9:29 am 09:29 Cloudy 1 -17 -6 -21 71 71 NNW 24 39 30.21 1023 8 13 0.00 0.00
9:56 am 09:56 Cloudy 2 -16.7 -6 -21.1 69 69 NNW 29 46 30.16 1021 8 13 0.00 0.00
10:13 am 10:13 Cloudy 1 -17 -6 -21 71 71 NNW 30 48 30.24 1024 10 16 0.00 0.00
10:56 am 10:56 Cloudy 2 -16.7 -5 -20.6 72 72 NNW 29 46 30.19 1022 9 14 0.00 0.00
11:03 am 11:03 Cloudy 1 -17 -6 -21 71 71 NNW 28 44 30.27 1025 10 16 0.00 0.00
11:56 am 11:56 Mostly Cloudy 4 -15.6 -4 -20 69 69 NNW 31 50 30.19 1023 10 16 0.00 0.00
12:56 pm 12:56 Cloudy 6 -14.4 -1 -18.3 73 73 NNW 26 43 30.22 1023 9 14 0.00 0.00
1:56 pm 13:56 Cloudy 7 -13.9 -1 -18.3 70 70 NNW 29 46 30.22 1024 9 14 0.00 0.00
2:56 pm 14:56 Partly Cloudy 6 -14.4 -2 -18.9 69 69 NNW 32 52 30.25 1025 10 16 0.00 0.00
3:27 pm 15:27 Mostly Cloudy 5 -15 -2 -19 72 72 NNW 26 43 30.33 1027 9 14 0.00 0.00
3:56 pm 15:56 Mostly Cloudy 4 -15.6 -4 -20 69 69 NNW 23 37 30.32 1027 10 16 0.00 0.00
4:10 pm 16:10 Partly Cloudy 3 -16 -4 -20 72 72 NNW 25 41 30.39 1029 10 16 0.00 0.00
4:56 pm 16:56 Sunny 2 -16.7 -6 -21.1 69 69 NNW 23 37 30.37 1029 10 16 0.00 0.00
5:56 pm 17:56 Clear 0 -17.8 -8 -22.2 69 69 NNW 23 37 30.41 1030 10 16 0.00 0.00
6:56 pm 18:56 Clear -1 -18.3 -9 -22.8 68 68 NNW 15 24 30.46 1031 10 16 0.00 0.00
7:56 pm 19:56 Clear -3 -19.4 -10 -23.3 71 71 NNW 13 20 30.48 1032 10 16 0.00 0.00
8:56 pm 20:56 Clear -4 -20 -11 -23.9 71 71 NNW 18 30 30.49 1033 10 16 0.00 0.00
9:56 pm 21:56 Clear -6 -21.1 -13 -25 71 71 undefined N/A N/A 10 16 0.00 0.00
10:36 pm 22:36 Mostly Clear -6 -21 -13 -25 70 70 NNW 15 24 30.56 1035 10 16 0.00 0.00
10:56 pm 22:56 Clear -7 -21.7 -13 -25 75 75 NNW 14 22 N/A 10 16 0.00 0.00
11:56 pm 23:56 Clear -7 -21.7 -14 -25.6 71 71 NNW 13 20 N/A 10 16 0.00 0.00

Powered by Vaisala Xweather